星链-36319(STARLINK-36319)

导读 | 豆包AI

STARLINK-36319(NORAD编号67970)是美国SpaceX公司星链(Starlink)低轨卫星互联网星座的一员。星链项目旨在通过部署近万颗低轨卫星,为全球提供高速低延迟互联网服务,尤其覆盖地面网络难以抵达的偏远区域。 该卫星运行于近地轨道,参与星座组网,为用户提供宽带接入服务,支持包括民用通信及部分特殊场景应用。截至2026年4月,SpaceX已累计发射超1.1万颗星链卫星,在轨活跃卫星突破万颗,STARLINK-36319是这一全球最大低轨卫星星座的组成单元,助力星链实现全球网络覆盖。

Basic Information
目录编号:
67970
目录名称:
STARLINK-36319
国际标识:
2026-038K
轨道中心:
EARTH
卫星名称:
星链-36319
卫星全名:
星链-36319(STARLINK-36319)
卫星状态:
在轨 (已飞行63 天)
发射日期:
2026-02-25 UTC
国别 :
美国 (US)
星等 :
--
Orbit Information
数据来源 国际轨道数据 AOE轨道数据
星历时间 2026-04-28T21:50:02+0800
10小时前
查看轨道信息
2026-04-26T18:00:00+0800
2天前
查看轨道信息
半长轴 6843.654km 6843.693km
偏心率 0.0001247 0.0000926
轨道倾角 97.285° 97.285°
近地点辐角 104.891° 86.167°
升交点赤经 128.965° 126.839°
平近点角 255.247° 239.079°
近地点 464.663km 464.922km
远地点 466.371km 466.19km
周期 93.906分钟 93.906分钟
每日圈数 15.334539 15.334407
Detailed Information
固有亮度:
5
最大亮度:
2.5
卫星平台:
Starlink V1.0
覆盖范围:
全球
运营商:
太空探索技术公司
运营商所在国:
美国
制造商(研发单位):
太空探索技术公司
制造商所在国:
美国
使用方式:
暂无
Satellite Introduction
Starlink 计划是 SpaceX 推出的全球卫星互联网项目,通过发射低轨道卫星,为全球尤其是偏远地区提供高速、低延迟的互联网服务。自 2019 年起,Starlink 已部署数千颗卫星,旨在缩小全球数字鸿沟,推动互联网普及。该项目还为军事、航空等行业提供通信支持,带来广泛经济效益。
2D Orbit Map
3D Orbit Map
Orbit Altitude Analysis Chart
Orbit Inclination Analysis Chart
Orbit Comprehensive Analysis Chart
View Comprehensive Chart